Farmingdale, NJ

4:44 AM EDT on August 24, 2016 (GMT -0400)
Allaire

Weather History for KBLM - February, 2014

Change the Weather History Date:

Sunday, February 23, 2014

  Actual Average Record
Temperature  
Mean Temperature 48 °F -  
Max Temperature 57 °F 42 °F 60 °F (2012)
Min Temperature 39 °F 28 °F 10 °F (2015)
Degree Days  
Heating Degree Days 17    
Moisture  
Dew Point 29 °F    
Average Humidity 49    
Maximum Humidity 61    
Minimum Humidity 38    
Precipitation  
Precipitation 0.00 in - - ()
Sea Level Pressure  
Sea Level Pressure 29.94 in    
Wind  
Wind Speed 7 mph (WSW)    
Max Wind Speed 12 mph    
Max Gust Speed 16 mph    
Visibility 10 miles    
Events      
Averages and records for this station are not official NWS values.
T = Trace of Precipitation, MM = Missing Value Source: NWS Daily Summary

Daily Weather History Graph

Daily Weather History Graph

Search for Another Location

Airport or City:

Trip Planner

Search our weather history database for the weather conditions in past years. The results will help you decide how hot, cold, wet, or windy it might be!

Date:

Astronomy

Feb. 23, 2014 Rise Set
Actual Time 6:38 AM EST 5:41 PM EST
Civil Twilight 6:11 AM EST 6:08 PM EST
Nautical Twilight 5:39 AM EST 6:40 PM EST
Astronomical Twilight 5:08 AM EST 7:11 PM EST
Moon 1:34 AM EST (2/23) 11:41 AM EST (2/23)
Length of Visible Light 11h 57m
Length of Day
11h 02m
Last Quarter, 39% of the Moon is Illuminated
Feb 23
Last Quarter
Mar 1
New
Mar 8
First Quarter
Mar 16
Full
Mar 23
Last Quarter

Hourly Weather History & Observations

Time (EST) Temp. Windchill Dew Point Humidity Pressure Visibility Wind Dir Wind Speed Gust Speed Precip Events Conditions
12:15 AM 44.6 °F 40.2 °F 28.4 °F 53% 30.03 in 10.0 mi SW 8.1 mph - N/A   Clear
12:35 AM 44.6 °F 40.2 °F 28.4 °F 53% 30.02 in 10.0 mi SSW 8.1 mph - N/A   Clear
12:55 AM 44.6 °F 40.7 °F 28.4 °F 53% 30.02 in 10.0 mi SW 6.9 mph - N/A   Clear
1:15 AM 44.6 °F 40.7 °F 28.4 °F 53% 30.02 in 10.0 mi SSW 6.9 mph - N/A   Clear
1:35 AM 44.6 °F 42.2 °F 28.4 °F 53% 30.02 in 10.0 mi SSW 4.6 mph - N/A   Clear
1:55 AM 44.6 °F 41.4 °F 26.6 °F 49% 30.01 in 10.0 mi SSW 5.8 mph - N/A   Clear
2:15 AM 42.8 °F 39.3 °F 28.4 °F 57% 30.01 in 10.0 mi SSW 5.8 mph - N/A   Clear
2:35 AM 42.8 °F 40.1 °F 28.4 °F 57% 30.01 in 10.0 mi SSW 4.6 mph - N/A   Clear
2:55 AM 42.8 °F 39.3 °F 28.4 °F 57% 30.01 in 10.0 mi SSW 5.8 mph - N/A   Clear
3:15 AM 42.8 °F 39.3 °F 28.4 °F 57% 30.01 in 10.0 mi SSW 5.8 mph - N/A   Clear
3:35 AM 42.8 °F 38.6 °F 28.4 °F 57% 30.01 in 10.0 mi SW 6.9 mph - N/A   Clear
3:55 AM 42.8 °F 39.3 °F 28.4 °F 57% 30.01 in 10.0 mi SSW 5.8 mph - N/A   Clear
4:15 AM 42.8 °F 39.3 °F 28.4 °F 57% 30.01 in 10.0 mi SSW 5.8 mph - N/A   Clear
4:35 AM 44.6 °F 40.7 °F 30.2 °F 57% 30.01 in 10.0 mi SW 6.9 mph - N/A   Clear
4:55 AM 44.6 °F 40.7 °F 30.2 °F 57% 30.01 in 10.0 mi SW 6.9 mph - N/A   Clear
5:15 AM 44.6 °F 40.7 °F 30.2 °F 57% 30.00 in 10.0 mi SSW 6.9 mph - N/A   Clear
5:35 AM 44.6 °F 39.7 °F 30.2 °F 57% 30.00 in 10.0 mi SSW 9.2 mph - N/A   Clear
5:55 AM 44.6 °F 39.7 °F 30.2 °F 57% 30.01 in 10.0 mi SW 9.2 mph - N/A   Clear
6:15 AM 44.6 °F 40.2 °F 30.2 °F 57% 30.00 in 10.0 mi SW 8.1 mph - N/A   Clear
6:35 AM 44.6 °F 40.7 °F 30.2 °F 57% 30.00 in 10.0 mi SW 6.9 mph - N/A   Clear
6:55 AM 44.6 °F 40.7 °F 30.2 °F 57% 30.02 in 10.0 mi West 6.9 mph - N/A   Clear
7:15 AM 42.8 °F 40.1 °F 30.2 °F 61% 30.02 in 10.0 mi West 4.6 mph - N/A   Clear
7:35 AM 42.8 °F 40.1 °F 30.2 °F 61% 30.02 in 10.0 mi West 4.6 mph - N/A   Clear
7:55 AM 44.6 °F 40.7 °F 30.2 °F 57% 30.02 in 10.0 mi WSW 6.9 mph - N/A   Clear
8:15 AM 44.6 °F 41.4 °F 30.2 °F 57% 30.02 in 10.0 mi WSW 5.8 mph - N/A   Clear
8:35 AM 46.4 °F 44.3 °F 32.0 °F 57% 30.01 in 10.0 mi WSW 4.6 mph - N/A   Clear
8:55 AM 48.2 °F - 33.8 °F 58% 30.01 in 10.0 mi West 5.8 mph - N/A   Clear
9:15 AM 50.0 °F - 33.8 °F 54% 30.01 in 10.0 mi West 4.6 mph - N/A   Clear
9:35 AM 51.8 °F - 32.0 °F 47% 30.01 in 10.0 mi West 8.1 mph - N/A   Clear
9:55 AM 51.8 °F - 30.2 °F 44% 30.00 in 10.0 mi West 9.2 mph - N/A   Clear
10:15 AM 53.6 °F - 32.0 °F 44% 30.00 in 10.0 mi SW 10.4 mph - N/A   Clear
10:35 AM 53.6 °F - 32.0 °F 44% 29.99 in 10.0 mi West 5.8 mph - N/A   Clear
10:55 AM 53.6 °F - 32.0 °F 44% 29.98 in 10.0 mi WSW 6.9 mph - N/A   Clear
11:15 AM 53.6 °F - 28.4 °F 38% 29.97 in 10.0 mi WSW 8.1 mph - N/A   Clear
11:35 AM 55.4 °F - 30.2 °F 38% 29.95 in 10.0 mi West 9.2 mph - N/A   Clear
11:55 AM 55.4 °F - 30.2 °F 38% 29.94 in 10.0 mi NW 10.4 mph - N/A   Clear
12:15 PM 55.4 °F - 30.2 °F 38% 29.93 in 10.0 mi West 10.4 mph - N/A   Clear
12:35 PM 57.2 °F - 32.0 °F 38% 29.93 in 10.0 mi WNW 6.9 mph 16.1 mph N/A   Clear
12:55 PM 55.4 °F - 32.0 °F 41% 29.91 in 10.0 mi North 10.4 mph - N/A   Clear
1:15 PM 55.4 °F - 30.2 °F 38% 29.89 in 10.0 mi North 3.5 mph - N/A   Clear
1:35 PM 55.4 °F - 32.0 °F 41% 29.89 in 10.0 mi Calm Calm - N/A   Clear
1:55 PM 53.6 °F - 33.8 °F 47% 29.89 in 10.0 mi East 9.2 mph - N/A   Clear
2:15 PM 51.8 °F - 32.0 °F 47% 29.89 in 10.0 mi East 8.1 mph - N/A   Clear
2:35 PM 51.8 °F - 32.0 °F 47% 29.90 in 10.0 mi East 6.9 mph - N/A   Clear
2:55 PM 51.8 °F - 33.8 °F 50% 29.89 in 10.0 mi East 5.8 mph - N/A   Clear
3:15 PM 53.6 °F - 32.0 °F 44% 29.88 in 10.0 mi ENE 4.6 mph - N/A   Clear
3:35 PM 55.4 °F - 32.0 °F 41% 29.89 in 10.0 mi WNW 11.5 mph - N/A   Clear
3:55 PM 55.4 °F - 32.0 °F 41% 29.89 in 10.0 mi WNW 10.4 mph - N/A   Clear
4:15 PM 55.4 °F - 30.2 °F 38% 29.88 in 10.0 mi WNW 8.1 mph - N/A   Clear
4:35 PM 53.6 °F - 28.4 °F 38% 29.89 in 10.0 mi West 8.1 mph - N/A   Clear
4:55 PM 53.6 °F - 28.4 °F 38% 29.88 in 10.0 mi West 5.8 mph - N/A   Clear
5:15 PM 53.6 °F - 28.4 °F 38% 29.87 in 10.0 mi WNW 4.6 mph - N/A   Clear
5:35 PM 51.8 °F - 26.6 °F 38% 29.87 in 10.0 mi West 4.6 mph - N/A   Clear
5:55 PM 48.2 °F - 26.6 °F 43% 29.86 in 10.0 mi SSE 3.5 mph - N/A   Clear
6:15 PM 46.4 °F - 28.4 °F 50% 29.88 in 10.0 mi Calm Calm - N/A   Clear
6:35 PM 46.4 °F - 28.4 °F 50% 29.87 in 10.0 mi Calm Calm - N/A   Clear
6:55 PM 44.6 °F 42.2 °F 28.4 °F 53% 29.88 in 10.0 mi West 4.6 mph - N/A   Clear
7:15 PM 46.4 °F 44.3 °F 26.6 °F 46% 29.87 in 10.0 mi WNW 4.6 mph - N/A   Clear
7:35 PM 46.4 °F 44.3 °F 26.6 °F 46% 29.88 in 10.0 mi WNW 4.6 mph - N/A   Clear
7:55 PM 46.4 °F 43.5 °F 26.6 °F 46% 29.87 in 10.0 mi West 5.8 mph - N/A   Clear
8:15 PM 44.6 °F 41.4 °F 26.6 °F 49% 29.87 in 10.0 mi West 5.8 mph - N/A   Clear
8:35 PM 44.6 °F 42.2 °F 26.6 °F 49% 29.86 in 10.0 mi West 4.6 mph - N/A   Clear
8:55 PM 44.6 °F 43.1 °F 24.8 °F 46% 29.86 in 10.0 mi WNW 3.5 mph - N/A   Clear
9:15 PM 44.6 °F 42.2 °F 26.6 °F 49% 29.87 in 10.0 mi West 4.6 mph - N/A   Clear
9:35 PM 44.6 °F 41.4 °F 24.8 °F 46% 29.88 in 10.0 mi WSW 5.8 mph - N/A   Clear
9:55 PM 44.6 °F 41.4 °F 24.8 °F 46% 29.87 in 10.0 mi West 5.8 mph - N/A   Clear
10:15 PM 42.8 °F 39.3 °F 24.8 °F 49% 29.87 in 10.0 mi West 5.8 mph - N/A   Clear
10:35 PM 41.0 °F 37.1 °F 24.8 °F 53% 29.87 in 10.0 mi West 5.8 mph - N/A   Clear
10:55 PM 41.0 °F 36.4 °F 24.8 °F 53% 29.87 in 10.0 mi WNW 6.9 mph - N/A   Clear
11:15 PM 41.0 °F 37.1 °F 24.8 °F 53% 29.87 in 10.0 mi WNW 5.8 mph - N/A   Partly Cloudy
11:35 PM 39.2 °F 35.0 °F 24.8 °F 56% 29.88 in 10.0 mi West 5.8 mph - N/A   Scattered Clouds
11:55 PM 42.8 °F 37.0 °F 26.6 °F 53% 29.87 in 10.0 mi NW 10.4 mph - N/A   Mostly Cloudy